Campo, CA

8:59 PM PDT on September 15, 2019 (GMT -0700)
Campo

Weather History for KCZZ - August, 2019

Change the Weather History Date:

Sunday, August 25, 2019

  Actual Average Record
Temperature  
Mean Temperature 78 °F 73 °F  
Max Temperature 96 °F 94 °F 107 °F (1985)
Min Temperature 60 °F 52 °F 30 °F (1978)
Degree Days  
Heating Degree Days 0 0  
Month to date heating degree days 0 0  
Since 1 June heating degree days 42 63  
Since 1 July heating degree days 6 7  
Cooling Degree Days 13 9  
Month to date cooling degree days 241 225  
Year to date cooling degree days 569 597  
Since 1 June cooling degree days 567 567  
Growing Degree Days 28 (Base 50)    
Moisture  
Dew Point 50 °F    
Average Humidity 42    
Maximum Humidity 64    
Minimum Humidity 19    
Precipitation  
Precipitation 0.00 in 0.03 in 1.07 in (2008)
Month to date precipitation 0.00 0.58  
Year to date precipitation 12.82 11.05  
Sea Level Pressure  
Sea Level Pressure 29.90 in    
Wind  
Wind Speed 7 mph (West)    
Max Wind Speed 23 mph    
Max Gust Speed 28 mph    
T = Trace of Precipitation, MM = Missing Value Source: NWS Daily Summary

Daily Weather History Graph

Daily Weather History Graph

Search for Another Location

Airport or City:

Astronomy

Aug. 25, 2019 Rise Set
Actual Time 6:16 AM PDT 7:19 PM PDT
Civil Twilight 5:50 AM PDT 7:44 PM PDT
Nautical Twilight 5:20 AM PDT 8:14 PM PDT
Astronomical Twilight 4:49 AM PDT 8:45 PM PDT
Moon 1:04 AM PDT (8/25) 3:33 PM PDT (8/25)
Length of Visible Light 13h 54m
Length of Day
13h 03m
Waning Crescent, 28% of the Moon is Illuminated
Aug 25
Waning Crescent
Aug 30
New
Sep 5
First Quarter
Sep 13
Full
Sep 21
Last Quarter

Hourly Weather History & Observations

Time (PDT) Temp. Heat Index Dew Point Humidity Pressure Visibility Wind Dir Wind Speed Gust Speed Precip Events Conditions
12:52 AM 66.0 °F - 46.9 °F 50% 29.91 in - ENE 5.8 mph - N/A   Unknown
1:52 AM 66.0 °F - 48.0 °F 52% 29.90 in - NNE 4.6 mph - N/A   Unknown
2:52 AM 64.9 °F - 48.0 °F 54% 29.90 in - Calm Calm - N/A   Unknown
3:52 AM 64.9 °F - 48.9 °F 56% 29.90 in - ENE 4.6 mph - N/A   Unknown
4:52 AM 61.0 °F - 48.0 °F 62% 29.91 in - NE 4.6 mph - N/A   Unknown
6:52 AM 64.0 °F - 48.9 °F 58% 29.95 in - East 3.5 mph - N/A   Unknown
7:52 AM 73.0 °F - 53.1 °F 49% 29.96 in - Calm Calm - N/A   Unknown
8:52 AM 82.9 °F - 42.1 °F 24% 29.94 in - Calm Calm - N/A   Unknown
9:52 AM 86.0 °F - 42.1 °F 21% 29.93 in - Calm Calm - N/A   Unknown
10:52 AM 90.0 °F - 46.0 °F 22% 29.91 in - Variable 3.5 mph - N/A   Unknown
11:52 AM 93.0 °F - 46.9 °F 20% 29.89 in - SW 11.5 mph - N/A   Unknown
12:52 PM 93.9 °F - 46.0 °F 19% 29.88 in - SW 16.1 mph 23.0 mph N/A   Unknown
1:52 PM 95.0 °F - 46.0 °F 19% 29.87 in - WSW 16.1 mph - N/A   Unknown
2:52 PM 91.9 °F - 46.9 °F 21% 29.87 in - SW 20.7 mph 27.6 mph N/A   Unknown
3:52 PM 89.1 °F - 46.9 °F 23% 29.88 in - WSW 13.8 mph - N/A   Unknown
4:52 PM 87.1 °F - 51.1 °F 29% 29.88 in - WSW 11.5 mph - N/A   Unknown
5:52 PM 84.9 °F - 52.0 °F 32% 29.89 in - West 9.2 mph - N/A   Unknown
6:52 PM 81.0 °F 80.8 °F 55.9 °F 42% 29.89 in - WSW 12.7 mph - N/A   Unknown
7:52 PM 78.1 °F - 57.0 °F 48% 29.89 in - WSW 6.9 mph - N/A   Unknown
8:52 PM 75.9 °F - 55.9 °F 50% 29.89 in - NNW 4.6 mph - N/A   Unknown
9:52 PM 73.9 °F - 55.0 °F 52% 29.90 in - South 5.8 mph - N/A   Unknown
10:52 PM 71.1 °F - 54.0 °F 55% 29.88 in - NNE 3.5 mph - N/A   Unknown
11:52 PM 70.0 °F - 54.0 °F 57% 29.87 in - Calm Calm - N/A   Unknown